Regional Weather Roundup
Issued by NWS

Home | Current Version | Previous Version | Graphics & Text | Print | Product List | Glossary On
Versions: 1 2 3 4 5 6 7 8 9 10 11 12 13 14 15 16 17 18 19 20 21 22 23 24 25 26 27 28 29 30 31 32 33 34 35 36 37 38 39 40 41 42 43 44 45 46 47 48 49 50
000
ASUS43 KLOT 011821
RWRIL

ILLINOIS REGIONAL WEATHER ROUNDUP
NATIONAL WEATHER SERVICE CHICAGO/ROMEOVILLE IL
100 PM CDT WED APR 01 2015

NOTE: "FAIR" INDICATES FEW OR NO CLOUDS BELOW 12,000 FEET WITH NO
SIGNIFICANT WEATHER AND/OR OBSTRUCTIONS TO VISIBILITY.

* THESE STATIONS ARE NOT UNDER NWS QUALITY CONTROL. THEY ALSO MAY NOT
  REPORT WEATHER SUCH AS PRECIPITATION OR FOG.

ILZ001-002-007-009-015-016-024-011900-
NORTHWEST ILLINOIS

CITY           SKY/WX    TMP DP  RH WIND       PRES   REMARKS
MOLINE         FAIR      78  33  19 S20G30    29.90F
6HR MIN TEMP:  39; 6HR MAX TEMP:  78;

STERLING*      FAIR      75  37  25 SW7       29.93F
SAVANNA*       FAIR      76  33  21 S10       29.91F
$$

ILZ003-004-008-010-011-017-018-011900-
NORTH CENTRAL ILLINOIS

CITY           SKY/WX    TMP DP  RH WIND       PRES   REMARKS
ROCKFORD       FAIR      73  36  25 S17G26    29.95F
6HR MIN TEMP:  35; 6HR MAX TEMP:  73;

FREEPORT*      FAIR      71  38  31 S18       29.95F
ROCHELLE*      FAIR      71  39  30 S18G25    29.97F
DE KALB*       FAIR      68  37  31 S16G24    29.98F
PERU*          FAIR      73  35  25 S16       29.97F
$$

ILZ005-006-012>014-019>023-011900-
NORTHEAST ILLINOIS

CITY           SKY/WX    TMP DP  RH WIND       PRES   REMARKS
CHICAGO-OHARE  MOSUNNY   67  37  33 S10       29.99F
6HR MIN TEMP:  35; 6HR MAX TEMP:  67;

CHICAGO-MIDWAY SUNNY     69  36  29 S8        30.00F
6HR MIN TEMP:  41; 6HR MAX TEMP:  69;

AURORA         SUNNY     71  37  28 S12       29.99F
6HR MIN TEMP:  30; 6HR MAX TEMP:  71;

LANSING*       SUNNY     67  34  29 S7        30.02F
JOLIET*        SUNNY     71  38  30 S9G16     30.00F
WAUKEGAN       SUNNY     52  37  56 SE12      30.00F
6HR MIN TEMP:  29; 6HR MAX TEMP:  52;

DUPAGE AIRPORT SUNNY     69  38  32 S12G18    29.98F
6HR MIN TEMP:  32; 6HR MAX TEMP:  69;

KANKAKEE*      SUNNY     70  40  33 S14       30.03F
WHEELING       SUNNY     67  36  31 VRB6      30.01F
6HR MIN TEMP:  33; 6HR MAX TEMP:  67;

MORRIS*        SUNNY     72  35  26 S15       29.99F
ROMEOVILLE*    SUNNY     69  35  29 S12       30.00F
NORTHERLY ISL    N/A     47  37  68 CALM        N/A
$$

LMZ740>746-011900-
SOUTHERN LAKE MICHIGAN

STATION/POSITION SKY/WX   TEMP    WIND        PRES    VSBY  WAVE
                          AIR SEA DIR/SP/G                  HT/PER
                          (F)     (DEG/KT/KT) (MB)    (MI)  (FT/S)
HARRISON CRIB              44     100/ 15/ 16   N/A
BURNHAM HARBOR             47      CALM  /  4   N/A
CALUMET HARBOR             62     180/  9/ 12 1015.8F
BURNS HARBOR               62     180/  5/ 13 1018.3F
MICHIGAN CITY              43      20/ 10/ 12   N/A
$$

ILZ025>027-034>036-040-047-049-050-058-095>099-011900-
WEST-CENTRAL ILLINOIS

CITY           SKY/WX    TMP DP  RH WIND       PRES   REMARKS
QUINCY         FAIR      74  34  23 S17       29.94F
GALESBURG*     FAIR      75  36  24 S18G24    29.94F
MACOMB*        FAIR      76  33  21 S20       29.96F
JACKSONVILLE*  FAIR      74  40  29 S16G23    29.98F
PITTSFIELD*    FAIR      74  40  29 S12       29.97F
$$

ILZ028>032-037-038-041>044-048-051>054-059>061-011900-
CENTRAL ILLINOIS

CITY           SKY/WX    TMP DP  RH WIND       PRES   REMARKS
PONTIAC        FAIR      72  41  31 S18G24    30.01F
BLOOMINGTON    FAIR      72  41  32 S18       30.01F
DECATUR        FAIR      71  41  33 S13       30.02F
PEORIA         FAIR      76  38  25 S13G23    29.97F
6HR MIN TEMP:  44; 6HR MAX TEMP:  77;

LACON*         FAIR      73  35  24 SW9       29.96F
LINCOLN*       FAIR      73  40  30 S14G22    29.98F
SPRINGFIELD    FAIR      72  43  35 S18       30.00F
6HR MIN TEMP:  46; 6HR MAX TEMP:  74;

TAYLORVILLE    FAIR      70  43  37 S15       30.02S
$$

ILZ033-039-045-046-055>057-062-063-011900-
EAST-CENTRAL ILLINOIS

CITY           SKY/WX    TMP DP  RH WIND       PRES   REMARKS
CHAMPAIGN      SUNNY     69  38  32 S15G25    30.03F
DANVILLE*      SUNNY     65  41  41 S13       30.03F
RANTOUL*       SUNNY     69  40  35 S13G20    30.03F
MATTOON        FAIR      66  41  40 S12G21    30.04F
PARIS*         SUNNY     66  44  45 S10       30.07F
$$

ILZ079-100>102-011900-
SOUTHWEST ILLINOIS

CITY           SKY/WX    TMP DP  RH WIND       PRES   REMARKS
ALTON          PTSUNNY   72  30  21 SE16      30.01F
BELLEVILLE     FAIR      72  41  32 SE12G17   30.00F
CAHOKIA*       FAIR      73  39  29 S17G23    30.00F
SPARTA*        FAIR      69  40  34 S10G18    30.04F
$$

ILZ064>066-069>071-074>076-080>082-084>086-088>090-092>094-011900-
SOUTH-CENTRAL ILLINOIS

CITY           SKY/WX    TMP DP  RH WIND       PRES   REMARKS
CARBONDALE     FAIR      72  38  29 S14G22    30.04F
6HR MIN TEMP:  38; 6HR MAX TEMP:  72;

CAIRO*         FAIR      73  40  30 E13       30.05F
EFFINGHAM*     FAIR      68  36  31 SE8       30.06F
MARION         PTSUNNY   73  39  29 SE17      30.06F
MT. VERNON     FAIR      72  43  35 SE9       30.05F
CENTRALIA*     FAIR      70  37  29 S14       30.03F
SALEM*         FAIR      73  38  27 S10       30.04F
METROPOLIS*    FAIR      73  39  29 E6        30.06F
$$

ILZ067-068-072-073-078-083-087-091-011900-
SOUTHEAST ILLINOIS

CITY           SKY/WX    TMP DP  RH WIND       PRES   REMARKS
LAWRENCEVILLE  SUNNY     68  39  34 S14       30.08F
FLORA*         SUNNY     68  40  35 S12G17    30.06F
FAIRFIELD*     FAIR      69  42  37 S12       30.06S
HARRISBURG*    FAIR      72  40  30 S9        30.07S
ROBINSON*      SUNNY     67  38  34 SE10      30.09S
CARMI*         FAIR      69  33  26 SE13      30.07S
$$

ABBREVIATIONS USED IN REMARKS
   TC - TEMPERATURE IN CELSIUS
  WCI - WIND CHILL INDEX
   HX - HEAT INDEX
  VSB - VISIBILITY
$$




USA.gov is the U.S. government's official web portal to all federal, state and local government web resources and services.